SCP
0 0 0 0 0 0 0 0 0 0 0 0 0 0 0 0 0 0 0 0 0 0 0 0 0 0 0 0 0 0 0 0 0 0 0 0 0 0 0 0 0 0 0 0 0 0 0 0 0
0 0 0 0 0 0 0 0 0 0 0 0 0 0 0 0 0 0 0 0 0 0 0 0 0 0 0 0 0 0 0 0 0 0 0 0 0 0 0 0 0 0 0 0 0 0 0 0 0
0 0 0 0 0 0 0 0 0 0 0 0 0 0 0 0 0 0 0 0 0 0 0 0 0 0 0 0 0 0 0 0 0 0 0 0 0 0 0 0 0 0 0 0 0 0 0 0 0
0 0 0 0 0 0 0 0 0 0 0 0 0 0 0 0 0 0 0 0 0 0 0 0 0 0 0 0 0 0 0 0 0 0 0 0 0 0 0 0 0 0 0 0 0 0 0 0 0
0 0 0 0 0 0 0 0 0 0 0 0 0 0 0 0 0 0 0 0 0 0 0 0 0 0 0 0 0 0 0 0 0 0 0 0 0 0 0 0 0 0 0 0 0 0 0 0 0
0 0 0 0 0 0 0 0 0 0 0 0 0 0 0 0 0 0 0 0 0 0 0 0 0 0 0 0 0 0 0 0 0 0 0 0 0 0 0 0 0 0 0 0 0 0 0 0 0
0 0 0 0 0 0 0 0 0 0 0 0 0 0 0 -0 0 0 0 0 0 0 0 0 0 0 0 0 0 0 0 0 0 0 0 0 0 0 0 0 0 0 0 0 0 0 0 0 0
0 0 0 0 0 0 0 0 0 0 0 0 0 0 0 -0 -0 0 0 0 0 0 0 0 0 0 0 0 0 0 0 0 0 0 0 0 0 0 0 0 0 0 0 0 0 0 0 0 0
0 0 0 0 0 0 0 0 0 0 0 0 0 0 0 0 0 0 0 0 0 0 0 0 0 0 0 0 0 0 0 0 0 0 0 0 0 0 0 0 0 0 0 0 0 0 0 0 0
0 0 0 0 0 0 0 0 0 0 0 0 0 0 0 0 0 0 0 0 0 0 0 0 0 0 0 0 0 0 0 0 0 0 0 0 0 0 0 0 0 0 0 0 0 0 0 0 0
0 0 0 0 0 0 0 0 0 0 0 0 0 0 0 0 0 0 0 0 0 0 0 0 0 0 0 0 0 0 0 0 0 0 0 0 0 0 0 0 0 0 0 0 0 0 0 0 0
0 0 0 0 0 0 0 0 0 0 0 0 0 0 0 0 0 0 0 0 0 0 0 0 0 0 0 0 0 0 0 0 0 0 0 0 0 0 0 0 0 0 0 0 0 0 0 0 0
0 0 0 0 0 0 0 0 0 0 0 0 0 0 0 0 0 0 0 0 0 0 0 0 0 0 0 0 0 0 0 0 0 0 0 0 0 0 0 0 0 0 0 0 0 0 0 0 0
0 0 0 0 0 0 0 0 0 0 0 0 0 0 0 0 0 0 0 0 0 0 0 0 0 0 0 0 0 0 0 0 0 0 0 0 0 0 0 0 0 0 0 0 0 0 0 0 0
0 0 0 0 0 0 0 0 0 0 0 0 0 0 0 0 0 0 0 0 0 0 0 0 0 0 0 0 0 0 0 0 0 0 0 0 0 0 0 0 0 0 0 0 0 0 0 0 0
0 0 0 0 0 0 0 0 0 0 0 0 0 0 0 0 0 0 0 0 0 0 0 0 0 0 0 0 0 0 0 0 0 0 0 0 0 0 0 0 0 0 0 0 0 0 0 0 0
0 0 0 0 0 0 0 0 0 0 0 0 0 0 0 0 0 0 0 0 0 0 0 0 0 0 0 0 0 0 0 0 0 0 0 0 0 0 0 0 0 0 0 0 0 0 0 0 0
0 0 0 0 0 0 0 0 0 0 0 0 0 0 0 0 0 0 0 0 0 0 0 0 0 0 0 0 0 0 0 0 0 0 0 0 0 0 0 0 0 0 0 0 0 0 0 0 0
0 0 0 0 0 0 0 0 0 0 0 -0 0 0 0 0 0 0 0 0 0 0 0 0 0 0 0 0 0 0 0 0 0 0 0 0 0 0 0 0 0 0 0 0 0 0 0 0 0
0 0 0 0 0 0 0 0 0 0 0 0 0 0 0 0 0 0 0 0 0 0 0 0 0 0 0 0 0 0 0 0 0 0 0 0 0 0 0 0 0 0 0 0 0 0 0 0 0
0 0 0 0 0 0 0 0 0 0 0 0 -0 -0 0 0 0 0 0 0 0 0 0 0 0 0 0 0 0 0 0 0 0 0 0 0 0 0 0 0 0 0 0 0 0 0 0 0 0
0 0 0 0 0 0 0 0 0 0 0 0 0 -0 -0 0 0 0 0 0 0 0 0 0 0 0 0 0 0 0 0 0 0 0 0 0 0 0 0 0 0 0 0 0 0 0 0 0 0
0 0 0 0 0 0 0 0 0 0 0 0 0 -0 -0 0 0 0 0 0 0 0 0 0 0 0 0 0 0 0 0 0 0 0 0 0 0 0 0 0 0 0 0 0 0 0 0 0 0
0 0 0 0 0 0 0 0 0 0 0 0 0 0 0 0 0 0 0 0 0 0 0 0 0 0 0 0 0 0 0 0 0 0 0 0 0 0 0 0 0 0 0 -0 -0 0 0 0 0
0 0 0 0 0 0 0 0 0 0 0 0 0 0 0 0 0 0 0 0 0 0 0 0 0 0 0 0 0 0 0 0 0 0 0 0 0 0 0 0 0 0 0 0 0 0 0 0 0
0 0 0 0 0 0 0 0 0 0 0 0 0 0 0 0 0 0 0 0 0 0 0 0 0 0 0 0 0 0 0 0 0 0 0 0 0 0 0 0 0 0 0 0 0 0 0 0 0
0 0 0 0 0 0 0 0 0 0 0 0 0 0 0 0 0 0 0 0 0 0 0 0 0 0 0 0 0 0 0 0 0 0 0 0 0 0 0 0 0 0 0 0 0 0 0 0 0
0 0 0 0 0 0 0 0 0 0 0 0 0 0 0 0 0 0 0 0 0 0 0 0 0 0 0 0 0 0 0 0 0 0 0 0 0 0 0 0 0 0 0 0 0 0 0 0 0
0 0 0 0 0 0 0 0 0 0 0 0 0 0 0 0 0 0 0 0 0 0 0 0 0 0 0 0 0 0 0 0 0 0 0 0 0 0 0 0 0 0 0 0 0 0 0 0 0
0 0 0 0 0 0 0 0 0 0 0 0 0 0 0 0 0 0 0 0 0 0 0 0 0 0 0 0 0 0 0 0 0 0 0 0 0 0 0 0 0 0 0 0 0 0 0 0 0
Wind_Speed_500mb
9 14 13 5 4 7 3 2 5 7 7 10 21 19 22 18 7 5 16 8 12 10 10 13 12 9 9 11 16 18 15 9 10 10 11 10 9 6 7 9 9 10 10 14 9 9 9 10 11
9 8 6 0 6 4 7 4 9 6 13 28 24 19 15 6 8 22 12 12 12 12 12 12 12 10 12 12 7 7 8 6 11 13 14 16 16 15 17 16 15 13 10 8 8 11 10 9 7
6 5 2 6 5 5 6 3 9 13 18 9 11 21 12 14 19 19 14 11 12 12 11 12 15 14 13 10 8 8 10 10 10 12 15 18 18 21 24 21 20 20 18 17 16 15 14 11 11
4 0 3 7 4 4 5 10 15 15 14 12 25 18 12 9 18 20 20 13 10 11 9 10 12 12 12 12 11 12 13 14 17 19 21 23 24 25 26 27 26 28 22 22 22 19 19 18 17
4 5 3 2 4 2 5 16 14 6 10 11 7 13 13 16 17 17 16 13 9 9 8 6 7 9 12 14 15 16 18 19 20 22 26 31 32 31 29 30 29 30 30 30 27 26 27 27 26
5 4 5 6 5 4 3 16 12 10 10 9 14 15 11 22 18 19 16 13 10 5 3 2 5 9 14 16 18 19 18 20 22 24 29 31 34 36 34 32 35 30 31 30 31 30 27 28 24
7 7 8 8 12 7 9 13 11 11 11 5 13 9 17 29 22 18 18 13 10 6 1 4 8 11 14 18 21 24 25 25 24 25 29 30 32 34 34 31 36 34 34 33 31 29 27 28 26
4 7 4 4 9 12 11 10 13 12 5 11 9 10 11 37 32 25 22 14 7 5 4 6 11 14 13 16 20 21 24 26 26 26 27 29 31 30 29 28 30 27 32 32 31 30 28 29 28
6 5 6 5 4 4 10 6 8 11 16 6 8 13 12 39 38 31 21 20 11 6 4 10 12 19 20 18 17 18 18 21 23 23 23 25 26 26 25 25 26 25 27 28 29 29 29 28 26
7 6 8 4 3 4 7 6 18 10 10 5 11 19 30 35 36 29 21 11 9 5 4 8 14 19 22 24 20 16 16 17 16 18 17 18 19 21 22 23 23 22 22 24 24 23 23 23 21
4 8 10 3 2 5 9 11 10 19 7 16 22 33 33 34 33 29 24 20 22 18 16 12 14 17 19 18 15 16 17 17 16 14 13 13 14 14 14 14 14 14 14 14 13 11 12 13 12
9 8 6 5 3 7 6 19 8 13 5 10 10 23 31 34 31 28 24 18 10 13 14 17 17 22 18 18 15 13 14 14 12 10 10 10 10 10 9 10 10 10 10 11 9 7 4 2 3
8 7 10 8 9 8 9 8 6 8 9 8 13 28 31 31 29 25 21 20 15 10 10 12 11 11 10 11 10 9 10 10 12 11 13 15 14 14 16 15 15 15 16 15 14 9 8 10 11
11 17 18 6 8 4 5 4 4 10 16 14 17 24 27 28 24 21 19 16 13 13 12 10 8 6 6 6 6 7 9 12 13 14 15 15 15 15 16 16 16 16 18 19 19 15 14 15 15
27 9 5 7 2 0 2 4 10 11 24 19 19 19 22 22 20 17 18 17 13 9 8 7 5 2 1 2 4 6 7 9 9 11 12 13 14 15 16 16 16 19 20 20 18 15 16 17 17
5 8 5 0 4 2 2 12 6 22 27 23 22 24 24 23 20 21 19 16 13 12 10 7 4 4 5 4 4 4 6 8 9 10 12 12 13 14 15 15 16 19 16 16 15 15 18 20 19
8 6 7 3 2 2 3 10 1 25 25 21 24 25 24 23 24 20 17 16 14 13 10 9 9 9 8 6 3 3 6 7 8 10 10 12 12 14 15 16 18 18 17 16 20 16 19 23 22
13 8 5 7 5 3 4 18 10 23 30 29 23 25 28 28 21 16 15 16 16 14 12 13 13 12 11 7 3 3 4 5 8 9 10 12 13 15 16 17 17 18 19 21 22 20 20 26 23
10 8 9 2 2 0 8 14 20 29 36 37 31 32 34 31 22 21 18 16 16 15 16 15 16 16 13 7 3 2 1 5 7 10 12 13 16 16 17 19 20 22 22 26 27 26 19 24 24
6 8 4 1 2 1 6 19 12 6 18 40 43 38 36 36 35 33 26 20 15 16 20 20 22 20 16 10 7 4 2 4 6 9 10 13 15 17 19 21 24 25 26 25 26 26 27 21 16
5 8 8 4 0 0 5 14 10 2 0 12 31 34 31 33 41 38 32 23 19 18 21 22 22 20 18 14 12 8 6 3 4 7 8 12 16 18 20 23 25 25 26 28 28 29 27 25 21
9 2 7 8 6 7 3 7 10 4 3 2 18 31 31 29 39 43 38 32 23 16 21 25 24 22 20 17 15 10 6 3 4 5 6 11 14 17 19 22 24 26 28 26 28 29 27 23 23
7 5 8 5 7 4 2 7 12 2 9 10 13 21 26 27 28 34 37 30 23 19 18 26 26 25 23 21 18 13 11 8 5 5 5 8 11 15 18 21 23 24 27 28 28 28 28 26 24
12 10 12 9 6 4 5 8 9 12 15 9 11 17 15 18 25 28 33 36 31 27 24 29 32 30 28 26 22 18 15 10 8 7 5 5 8 12 15 18 20 23 24 25 26 28 27 28 27
3 9 6 6 5 10 7 4 17 11 11 17 24 22 19 17 19 24 30 38 38 35 28 29 37 37 35 32 28 23 19 15 12 9 6 3 4 8 12 15 17 19 21 23 23 23 24 24 24
10 9 10 15 8 6 6 12 12 10 11 16 21 21 19 20 19 19 17 25 34 34 31 30 37 40 41 38 34 29 26 21 17 14 10 5 0 5 8 11 13 15 17 19 20 21 22 23 23
10 9 5 14 5 7 7 13 16 11 9 14 24 25 26 29 26 23 21 20 25 33 32 28 31 38 41 40 38 35 31 27 21 19 14 9 5 3 5 8 10 13 15 17 18 19 21 22 23
5 5 6 5 8 7 8 11 11 15 22 17 22 35 33 30 27 24 21 18 21 28 31 31 29 33 38 42 42 39 35 32 29 26 20 15 11 9 6 9 11 13 15 17 19 20 22 22 24
3 4 2 5 8 11 4 13 15 26 27 31 39 44 37 33 28 20 17 20 25 29 34 34 33 32 38 43 44 44 42 40 37 31 28 21 19 15 11 11 14 14 16 18 21 22 23 24 26
3 10 12 9 12 4 5 13 4 12 23 46 53 49 41 35 23 13 14 22 29 33 39 42 38 36 35 39 44 47 46 45 44 40 34 29 25 22 17 16 18 18 19 20 23 25 26 27 29
Wind_Direction_500mb
274 306 320 284 56 68 255 138 16 42 88 83 83 79 98 61 54 159 129 189 186 184 181 186 194 205 251 277 276 277 276 250 267 289 300 295 296 297 304 301 319 337 3 354 330 343 318 292 310
272 287 304 272 95 98 275 348 117 44 116 123 87 90 57 84 89 136 140 174 168 177 179 180 189 205 240 265 280 299 306 282 272 277 282 287 285 279 278 285 292 292 285 293 306 303 312 304 289
293 298 17 99 107 155 208 157 136 95 111 164 101 78 106 124 135 149 169 170 162 171 180 185 203 220 239 246 258 276 290 295 290 281 279 278 278 277 281 286 282 279 279 277 284 290 290 283 275
236 96 86 95 169 229 196 157 149 144 88 73 116 72 87 134 168 178 179 172 169 166 171 183 199 223 243 256 264 270 275 281 284 284 281 277 274 273 277 278 275 280 280 283 281 281 281 279 269
136 107 62 98 159 96 85 169 158 109 101 73 156 146 113 132 170 169 173 175 178 167 166 183 214 252 264 270 278 282 286 288 287 284 283 281 281 280 280 278 275 272 272 275 277 279 278 275 270
119 101 85 205 198 138 127 178 128 94 123 110 98 115 146 158 169 168 169 171 167 165 158 263 264 272 286 292 298 299 303 306 306 301 291 292 287 285 279 276 275 274 273 270 268 267 270 274 277
124 92 203 183 154 176 166 149 98 117 124 89 133 93 155 175 165 166 163 172 161 156 173 326 317 313 313 311 313 319 320 315 311 304 302 297 291 289 287 281 275 275 273 269 267 267 267 270 276
190 102 238 227 181 201 153 119 113 126 134 136 146 172 191 176 167 172 165 157 159 90 352 353 328 315 318 319 313 318 318 316 315 312 309 304 302 298 293 287 285 282 278 276 274 270 267 268 269
181 76 227 192 161 130 155 116 131 129 148 150 145 154 151 165 165 173 172 154 145 106 40 346 323 316 314 312 313 316 314 310 312 313 312 310 309 309 307 300 295 287 282 281 278 276 272 269 266
138 162 214 172 136 163 138 150 152 151 145 166 154 146 148 162 167 177 174 148 129 153 306 302 310 307 307 307 316 325 324 320 321 318 318 315 316 315 315 316 312 306 296 289 286 281 275 269 264
96 191 160 150 100 109 135 123 165 146 216 204 194 173 167 168 173 186 192 191 181 195 202 227 280 295 303 308 326 338 338 338 332 327 330 337 335 331 330 331 329 327 322 319 316 305 280 264 254
99 56 137 157 108 130 122 147 151 196 197 187 194 193 178 174 181 193 211 228 254 258 280 317 304 299 311 324 328 334 337 342 344 351 357 350 350 348 354 350 350 344 343 348 347 3 27 75 189
98 140 88 107 93 107 158 173 197 210 196 182 185 179 184 187 192 199 216 238 236 231 276 293 295 300 308 326 339 358 8 23 36 43 47 43 40 41 41 36 34 35 36 35 34 46 91 110 114
127 121 121 94 86 65 173 207 195 209 183 163 166 176 191 204 209 211 217 220 237 269 277 278 283 299 331 350 17 37 51 49 44 43 44 40 36 41 43 38 37 42 43 45 47 58 103 121 114
131 90 76 41 26 231 94 257 225 198 179 176 177 183 192 197 209 212 217 236 253 261 257 262 272 319 12 7 58 63 61 51 32 30 31 27 26 30 31 31 32 40 40 43 40 66 107 123 115
93 71 142 22 346 289 123 267 191 177 185 192 194 197 203 212 217 227 236 234 236 243 244 239 232 194 190 153 113 79 54 42 28 27 24 24 20 25 25 27 34 41 41 52 56 87 121 125 117
359 193 191 268 28 322 146 263 81 186 198 208 207 206 208 214 221 232 237 244 246 240 233 211 196 187 186 178 148 64 41 31 26 25 23 28 26 31 31 35 42 41 44 53 60 87 126 129 119
190 198 178 189 213 140 235 263 267 215 212 225 225 216 216 222 232 235 238 247 239 230 218 200 192 191 194 192 154 77 54 43 38 33 35 40 40 40 41 46 51 51 51 59 62 71 126 128 124
152 151 136 243 234 226 236 278 277 260 225 233 231 222 223 231 226 228 234 244 245 236 223 209 203 204 210 213 197 163 79 63 51 53 51 49 48 47 46 46 49 53 54 58 66 70 112 126 134
127 133 122 339 259 161 358 290 282 220 219 225 222 221 225 223 220 221 223 232 240 240 228 213 206 207 212 215 218 212 121 75 66 67 61 60 57 56 55 54 54 53 53 57 61 68 81 105 166
42 155 175 147 127 115 335 316 338 331 99 226 222 227 227 227 220 219 219 226 234 245 237 222 211 207 211 213 218 209 176 146 99 87 73 70 65 61 58 55 53 51 51 51 51 54 54 57 62
156 169 111 106 100 213 37 236 295 269 339 318 207 213 216 223 224 225 220 223 230 241 239 226 216 208 206 208 207 210 226 200 158 114 90 75 68 62 57 52 50 47 46 46 46 49 49 48 46
155 143 109 91 96 35 268 98 260 100 235 222 205 201 212 222 231 230 229 233 231 240 254 234 223 214 210 208 212 219 218 206 194 153 117 92 73 61 53 47 43 41 40 39 37 37 37 36 37
145 84 52 57 70 21 227 147 257 190 202 200 184 181 186 212 228 231 232 227 228 235 243 233 224 219 216 214 216 213 215 211 208 180 149 105 70 56 48 43 38 35 34 34 31 29 26 24 20
96 102 35 5 3 217 330 96 241 227 203 182 190 201 201 211 218 215 218 222 225 235 240 233 222 218 216 216 216 214 217 213 209 195 180 147 70 44 39 33 31 28 25 25 24 21 18 16 14
183 159 159 192 189 208 349 229 251 219 165 168 183 187 183 189 195 191 196 218 229 232 238 238 228 220 217 217 216 216 218 218 217 215 206 200 317 27 18 20 18 17 15 13 12 9 8 6 4
191 204 150 106 33 60 213 282 302 173 180 174 176 178 178 180 180 175 185 204 227 233 237 237 231 227 224 222 220 219 219 222 221 224 221 219 239 290 349 351 356 358 358 358 358 357 357 356 353
163 195 98 357 128 243 271 278 233 208 204 199 194 191 183 179 180 180 185 199 224 238 241 238 238 236 234 227 224 225 226 224 223 225 230 231 245 268 303 325 332 335 337 340 341 344 345 343 341
156 215 30 123 138 163 182 254 216 204 188 188 197 190 185 179 177 184 209 224 231 239 242 243 241 241 237 231 229 227 225 228 229 230 232 239 246 258 285 308 307 313 317 321 324 326 329 330 330
193 216 179 136 222 218 156 272 231 234 197 177 188 188 185 178 180 209 234 241 242 241 239 240 241 242 243 241 236 233 230 228 231 234 237 242 249 259 271 286 296 299 301 305 310 312 316 319 321
Wind_Speed_850mb
9 14 13 5 4 7 3 2 5 7 7 10 21 19 22 18 7 5 16 8 12 10 10 13 12 9 9 11 16 18 15 9 10 10 11 10 9 6 7 9 9 10 10 14 9 9 9 10 11
9 8 6 0 6 4 7 4 9 6 13 28 24 19 15 6 8 22 12 12 12 12 12 12 12 10 12 12 7 7 8 6 11 13 14 16 16 15 17 16 15 13 10 8 8 11 10 9 7
6 5 2 6 5 5 6 3 9 13 18 9 11 21 12 14 19 19 14 11 12 12 11 12 15 14 13 10 8 8 10 10 10 12 15 18 18 21 24 21 20 20 18 17 16 15 14 11 11
4 0 3 7 4 4 5 10 15 15 14 12 25 18 12 9 18 20 20 13 10 11 9 10 12 12 12 12 11 12 13 14 17 19 21 23 24 25 26 27 26 28 22 22 22 19 19 18 17
4 5 3 2 4 2 5 16 14 6 10 11 7 13 13 16 17 17 16 13 9 9 8 6 7 9 12 14 15 16 18 19 20 22 26 31 32 31 29 30 29 30 30 30 27 26 27 27 26
5 4 5 6 5 4 3 16 12 10 10 9 14 15 11 22 18 19 16 13 10 5 3 2 5 9 14 16 18 19 18 20 22 24 29 31 34 36 34 32 35 30 31 30 31 30 27 28 24
7 7 8 8 12 7 9 13 11 11 11 5 13 9 17 29 22 18 18 13 10 6 1 4 8 11 14 18 21 24 25 25 24 25 29 30 32 34 34 31 36 34 34 33 31 29 27 28 26
4 7 4 4 9 12 11 10 13 12 5 11 9 10 11 37 32 25 22 14 7 5 4 6 11 14 13 16 20 21 24 26 26 26 27 29 31 30 29 28 30 27 32 32 31 30 28 29 28
6 5 6 5 4 4 10 6 8 11 16 6 8 13 12 39 38 31 21 20 11 6 4 10 12 19 20 18 17 18 18 21 23 23 23 25 26 26 25 25 26 25 27 28 29 29 29 28 26
7 6 8 4 3 4 7 6 18 10 10 5 11 19 30 35 36 29 21 11 9 5 4 8 14 19 22 24 20 16 16 17 16 18 17 18 19 21 22 23 23 22 22 24 24 23 23 23 21
4 8 10 3 2 5 9 11 10 19 7 16 22 33 33 34 33 29 24 20 22 18 16 12 14 17 19 18 15 16 17 17 16 14 13 13 14 14 14 14 14 14 14 14 13 11 12 13 12
9 8 6 5 3 7 6 19 8 13 5 10 10 23 31 34 31 28 24 18 10 13 14 17 17 22 18 18 15 13 14 14 12 10 10 10 10 10 9 10 10 10 10 11 9 7 4 2 3
8 7 10 8 9 8 9 8 6 8 9 8 13 28 31 31 29 25 21 20 15 10 10 12 11 11 10 11 10 9 10 10 12 11 13 15 14 14 16 15 15 15 16 15 14 9 8 10 11
11 17 18 6 8 4 5 4 4 10 16 14 17 24 27 28 24 21 19 16 13 13 12 10 8 6 6 6 6 7 9 12 13 14 15 15 15 15 16 16 16 16 18 19 19 15 14 15 15
27 9 5 7 2 0 2 4 10 11 24 19 19 19 22 22 20 17 18 17 13 9 8 7 5 2 1 2 4 6 7 9 9 11 12 13 14 15 16 16 16 19 20 20 18 15 16 17 17
5 8 5 0 4 2 2 12 6 22 27 23 22 24 24 23 20 21 19 16 13 12 10 7 4 4 5 4 4 4 6 8 9 10 12 12 13 14 15 15 16 19 16 16 15 15 18 20 19
8 6 7 3 2 2 3 10 1 25 25 21 24 25 24 23 24 20 17 16 14 13 10 9 9 9 8 6 3 3 6 7 8 10 10 12 12 14 15 16 18 18 17 16 20 16 19 23 22
13 8 5 7 5 3 4 18 10 23 30 29 23 25 28 28 21 16 15 16 16 14 12 13 13 12 11 7 3 3 4 5 8 9 10 12 13 15 16 17 17 18 19 21 22 20 20 26 23
10 8 9 2 2 0 8 14 20 29 36 37 31 32 34 31 22 21 18 16 16 15 16 15 16 16 13 7 3 2 1 5 7 10 12 13 16 16 17 19 20 22 22 26 27 26 19 24 24
6 8 4 1 2 1 6 19 12 6 18 40 43 38 36 36 35 33 26 20 15 16 20 20 22 20 16 10 7 4 2 4 6 9 10 13 15 17 19 21 24 25 26 25 26 26 27 21 16
5 8 8 4 0 0 5 14 10 2 0 12 31 34 31 33 41 38 32 23 19 18 21 22 22 20 18 14 12 8 6 3 4 7 8 12 16 18 20 23 25 25 26 28 28 29 27 25 21
9 2 7 8 6 7 3 7 10 4 3 2 18 31 31 29 39 43 38 32 23 16 21 25 24 22 20 17 15 10 6 3 4 5 6 11 14 17 19 22 24 26 28 26 28 29 27 23 23
7 5 8 5 7 4 2 7 12 2 9 10 13 21 26 27 28 34 37 30 23 19 18 26 26 25 23 21 18 13 11 8 5 5 5 8 11 15 18 21 23 24 27 28 28 28 28 26 24
12 10 12 9 6 4 5 8 9 12 15 9 11 17 15 18 25 28 33 36 31 27 24 29 32 30 28 26 22 18 15 10 8 7 5 5 8 12 15 18 20 23 24 25 26 28 27 28 27
3 9 6 6 5 10 7 4 17 11 11 17 24 22 19 17 19 24 30 38 38 35 28 29 37 37 35 32 28 23 19 15 12 9 6 3 4 8 12 15 17 19 21 23 23 23 24 24 24
10 9 10 15 8 6 6 12 12 10 11 16 21 21 19 20 19 19 17 25 34 34 31 30 37 40 41 38 34 29 26 21 17 14 10 5 0 5 8 11 13 15 17 19 20 21 22 23 23
10 9 5 14 5 7 7 13 16 11 9 14 24 25 26 29 26 23 21 20 25 33 32 28 31 38 41 40 38 35 31 27 21 19 14 9 5 3 5 8 10 13 15 17 18 19 21 22 23
5 5 6 5 8 7 8 11 11 15 22 17 22 35 33 30 27 24 21 18 21 28 31 31 29 33 38 42 42 39 35 32 29 26 20 15 11 9 6 9 11 13 15 17 19 20 22 22 24
3 4 2 5 8 11 4 13 15 26 27 31 39 44 37 33 28 20 17 20 25 29 34 34 33 32 38 43 44 44 42 40 37 31 28 21 19 15 11 11 14 14 16 18 21 22 23 24 26
3 10 12 9 12 4 5 13 4 12 23 46 53 49 41 35 23 13 14 22 29 33 39 42 38 36 35 39 44 47 46 45 44 40 34 29 25 22 17 16 18 18 19 20 23 25 26 27 29
Wind_Direction_850mb
274 306 320 284 56 68 255 138 16 42 88 83 83 79 98 61 54 159 129 189 186 184 181 186 194 205 251 277 276 277 276 250 267 289 300 295 296 297 304 301 319 337 3 354 330 343 318 292 310
272 287 304 272 95 98 275 348 117 44 116 123 87 90 57 84 89 136 140 174 168 177 179 180 189 205 240 265 280 299 306 282 272 277 282 287 285 279 278 285 292 292 285 293 306 303 312 304 289
293 298 17 99 107 155 208 157 136 95 111 164 101 78 106 124 135 149 169 170 162 171 180 185 203 220 239 246 258 276 290 295 290 281 279 278 278 277 281 286 282 279 279 277 284 290 290 283 275
236 96 86 95 169 229 196 157 149 144 88 73 116 72 87 134 168 178 179 172 169 166 171 183 199 223 243 256 264 270 275 281 284 284 281 277 274 273 277 278 275 280 280 283 281 281 281 279 269
136 107 62 98 159 96 85 169 158 109 101 73 156 146 113 132 170 169 173 175 178 167 166 183 214 252 264 270 278 282 286 288 287 284 283 281 281 280 280 278 275 272 272 275 277 279 278 275 270
119 101 85 205 198 138 127 178 128 94 123 110 98 115 146 158 169 168 169 171 167 165 158 263 264 272 286 292 298 299 303 306 306 301 291 292 287 285 279 276 275 274 273 270 268 267 270 274 277
124 92 203 183 154 176 166 149 98 117 124 89 133 93 155 175 165 166 163 172 161 156 173 326 317 313 313 311 313 319 320 315 311 304 302 297 291 289 287 281 275 275 273 269 267 267 267 270 276
190 102 238 227 181 201 153 119 113 126 134 136 146 172 191 176 167 172 165 157 159 90 352 353 328 315 318 319 313 318 318 316 315 312 309 304 302 298 293 287 285 282 278 276 274 270 267 268 269
181 76 227 192 161 130 155 116 131 129 148 150 145 154 151 165 165 173 172 154 145 106 40 346 323 316 314 312 313 316 314 310 312 313 312 310 309 309 307 300 295 287 282 281 278 276 272 269 266
138 162 214 172 136 163 138 150 152 151 145 166 154 146 148 162 167 177 174 148 129 153 306 302 310 307 307 307 316 325 324 320 321 318 318 315 316 315 315 316 312 306 296 289 286 281 275 269 264
96 191 160 150 100 109 135 123 165 146 216 204 194 173 167 168 173 186 192 191 181 195 202 227 280 295 303 308 326 338 338 338 332 327 330 337 335 331 330 331 329 327 322 319 316 305 280 264 254
99 56 137 157 108 130 122 147 151 196 197 187 194 193 178 174 181 193 211 228 254 258 280 317 304 299 311 324 328 334 337 342 344 351 357 350 350 348 354 350 350 344 343 348 347 3 27 75 189
98 140 88 107 93 107 158 173 197 210 196 182 185 179 184 187 192 199 216 238 236 231 276 293 295 300 308 326 339 358 8 23 36 43 47 43 40 41 41 36 34 35 36 35 34 46 91 110 114
127 121 121 94 86 65 173 207 195 209 183 163 166 176 191 204 209 211 217 220 237 269 277 278 283 299 331 350 17 37 51 49 44 43 44 40 36 41 43 38 37 42 43 45 47 58 103 121 114
131 90 76 41 26 231 94 257 225 198 179 176 177 183 192 197 209 212 217 236 253 261 257 262 272 319 12 7 58 63 61 51 32 30 31 27 26 30 31 31 32 40 40 43 40 66 107 123 115
93 71 142 22 346 289 123 267 191 177 185 192 194 197 203 212 217 227 236 234 236 243 244 239 232 194 190 153 113 79 54 42 28 27 24 24 20 25 25 27 34 41 41 52 56 87 121 125 117
359 193 191 268 28 322 146 263 81 186 198 208 207 206 208 214 221 232 237 244 246 240 233 211 196 187 186 178 148 64 41 31 26 25 23 28 26 31 31 35 42 41 44 53 60 87 126 129 119
190 198 178 189 213 140 235 263 267 215 212 225 225 216 216 222 232 235 238 247 239 230 218 200 192 191 194 192 154 77 54 43 38 33 35 40 40 40 41 46 51 51 51 59 62 71 126 128 124
152 151 136 243 234 226 236 278 277 260 225 233 231 222 223 231 226 228 234 244 245 236 223 209 203 204 210 213 197 163 79 63 51 53 51 49 48 47 46 46 49 53 54 58 66 70 112 126 134
127 133 122 339 259 161 358 290 282 220 219 225 222 221 225 223 220 221 223 232 240 240 228 213 206 207 212 215 218 212 121 75 66 67 61 60 57 56 55 54 54 53 53 57 61 68 81 105 166
42 155 175 147 127 115 335 316 338 331 99 226 222 227 227 227 220 219 219 226 234 245 237 222 211 207 211 213 218 209 176 146 99 87 73 70 65 61 58 55 53 51 51 51 51 54 54 57 62
156 169 111 106 100 213 37 236 295 269 339 318 207 213 216 223 224 225 220 223 230 241 239 226 216 208 206 208 207 210 226 200 158 114 90 75 68 62 57 52 50 47 46 46 46 49 49 48 46
155 143 109 91 96 35 268 98 260 100 235 222 205 201 212 222 231 230 229 233 231 240 254 234 223 214 210 208 212 219 218 206 194 153 117 92 73 61 53 47 43 41 40 39 37 37 37 36 37
145 84 52 57 70 21 227 147 257 190 202 200 184 181 186 212 228 231 232 227 228 235 243 233 224 219 216 214 216 213 215 211 208 180 149 105 70 56 48 43 38 35 34 34 31 29 26 24 20
96 102 35 5 3 217 330 96 241 227 203 182 190 201 201 211 218 215 218 222 225 235 240 233 222 218 216 216 216 214 217 213 209 195 180 147 70 44 39 33 31 28 25 25 24 21 18 16 14
183 159 159 192 189 208 349 229 251 219 165 168 183 187 183 189 195 191 196 218 229 232 238 238 228 220 217 217 216 216 218 218 217 215 206 200 317 27 18 20 18 17 15 13 12 9 8 6 4
191 204 150 106 33 60 213 282 302 173 180 174 176 178 178 180 180 175 185 204 227 233 237 237 231 227 224 222 220 219 219 222 221 224 221 219 239 290 349 351 356 358 358 358 358 357 357 356 353
163 195 98 357 128 243 271 278 233 208 204 199 194 191 183 179 180 180 185 199 224 238 241 238 238 236 234 227 224 225 226 224 223 225 230 231 245 268 303 325 332 335 337 340 341 344 345 343 341
156 215 30 123 138 163 182 254 216 204 188 188 197 190 185 179 177 184 209 224 231 239 242 243 241 241 237 231 229 227 225 228 229 230 232 239 246 258 285 308 307 313 317 321 324 326 329 330 330
193 216 179 136 222 218 156 272 231 234 197 177 188 188 185 178 180 209 234 241 242 241 239 240 241 242 243 241 236 233 230 228 231 234 237 242 249 259 271 286 296 299 301 305 310 312 316 319 321